Regional Weather Roundup
Issued by NWS

Home | Current Version | Previous Version | Text Only | Print | Product List | Glossary Off
Versions: 1 2 3 4 5 6 7 8 9 10 11 12 13 14 15 16 17 18 19 20 21 22 23 24 25 26 27 28 29 30 31 32 33 34 35 36 37 38 39 40 41 42 43 44 45 46 47 48 49 50

000
ASUS43 KBIS 241920
RWRND

NORTH DAKOTA REGIONAL WEATHER ROUNDUP
NATIONAL WEATHER SERVICE BISMARCK ND
200 PM CDT FRI OCT 24 2014

NOTE: "FAIR" INDICATES FEW OR NO CLOUDS BELOW 12,000 FEET WITH NO
SIGNIFICANT WEATHER AND/OR OBSTRUCTIONS TO VISIBILITY.


NDZ001>003-009>011-017-242000-
NORTHWEST NORTH DAKOTA

CITY           SKY/WX    TMP DP  RH WIND       PRES   REMARKS
WILLISTON      PTSUNNY   62  29  28 W29G37    29.92R
MINOT          SUNNY     66  29  24 W24G32    29.83F
MINOT AFB      SUNNY     65  32  29 W26G33    29.81F
$$

NDZ018>021-031>035-040>046-242000-
SOUTHWEST NORTH DAKOTA

CITY           SKY/WX    TMP DP  RH WIND       PRES   REMARKS
BISMARCK       SUNNY     72  39  30 NW17G23   29.90F
DICKINSON      PTSUNNY   64  34  32 NW18G24   29.95F
GARRISON         N/A     65  31  28 W26G37    29.87F
HETTINGER ARPT CLOUDY    65  33  30 NW18      29.99F
$$

NDZ004>008-012>016-024-026-027-054-242000-
NORTHEAST NORTH DAKOTA

CITY           SKY/WX    TMP DP  RH WIND       PRES   REMARKS
GRAND FORKS    MOSUNNY   73  42  32 W17G26    29.73F
GRND FRKS AFB  SUNNY     72  42  33 W15G26    29.74F
DEVILS LAKE    SUNNY     66  39  37 W24G31    29.77S
$$

NDZ022-023-025-028>030-036>039-047>053-242000-
SOUTHEAST NORTH DAKOTA

CITY           SKY/WX    TMP DP  RH WIND       PRES   REMARKS
FARGO          SUNNY     71  43  36 SW12      29.79F
JAMESTOWN      SUNNY     71  41  33 W17       29.82F
$$




USA.gov is the U.S. government's official web portal to all federal, state and local government web resources and services.